Simultaneous Nadir Overpasses (SNOs) Predictions

Prediction of SNOs near US between AQUA and NPP Satellite Orbit:

Table of predicted SNOs near US for the next 10.0 days since TLE Epoch: 5/2/2015
Index Date (AQUA) Time (AQUA) AQUA Lat,Lon Date (NPP) Time (NPP) NPP Lat,Lon Distance(km) Time Diff (sec)
1 05/03/2015 06:57:21 20.05, -77.25 05/03/2015 06:49:15 19.91, -76.60 69.30 486
2 05/03/2015 08:36:14 20.05,-101.97 05/03/2015 08:30:43 20.03,-101.95 3.62 331
3 05/03/2015 10:09:53 38.93,-121.74 05/03/2015 10:06:48 39.02,-122.07 30.41 185
4 05/06/2015 07:19:54 49.92, -76.10 05/06/2015 07:24:57 50.32, -78.14 152.17 303
5 05/06/2015 08:58:47 49.92,-100.82 05/06/2015 09:06:25 50.43,-103.46 196.72 458
6 05/08/2015 18:18:02 49.98, -80.25 05/08/2015 18:15:14 49.72, -81.62 102.66 168
7 05/08/2015 19:56:55
